When you browse on this site, cookies collect data to enhance your experience and personalize the content and advertising you see.
Visit our Privacy Policy to learn more. By continuing to use the site, you agree to this use of cookies and data.
  • In Netherlands
  • List of Countries
  • For 7 days
  • Water Temperature
  • Weather Map
  • Weather Widgets
  • user-avatar
    Login

    Hourly Weather Kurytyba

    Today, 6 June, Saturday

    Time Temperature Precipitation Wind Pressure Humidity
    00:00 +18°C° 0.7 mm 1 mps 682 mmHg 97%
    01:00 +18°C° 0.7 mm 1 mps 682 mmHg 97%
    02:00 +17°C° 0.7 mm 2 mps 682 mmHg 97%
    03:00 +17°C° 0.7 mm 2 mps 682 mmHg 97%
    04:00 +17°C° 0.2 mm 2 mps 681 mmHg 97%
    05:00 +17°C° 0.2 mm 2 mps 681 mmHg 97%
    06:00 +17°C° 0.2 mm 2 mps 680 mmHg 97%
    07:00 +17°C° 0.1 mm 2 mps 681 mmHg 96%
    08:00 +18°C° 0.1 mm 3 mps 681 mmHg 96%
    09:00 +18°C° 0.1 mm 3 mps 682 mmHg 95%
    10:00 +18°C° 0.5 mm 3 mps 682 mmHg 95%
    11:00 +18°C° 0.5 mm 3 mps 682 mmHg 94%
    12:00 +18°C° 0.5 mm 3 mps 681 mmHg 94%
    13:00 +19°C° 0.6 mm 4 mps 681 mmHg 90%
    14:00 +19°C° 0.6 mm 4 mps 681 mmHg 87%
    15:00 +20°C° 0.6 mm 4 mps 681 mmHg 84%
    16:00 +19°C° 0 mm 4 mps 681 mmHg 85%
    17:00 +18°C° 0 mm 3 mps 681 mmHg 86%
    18:00 +17°C° 0 mm 3 mps 680 mmHg 87%
    19:00 +16°C° 0 mm 2 mps 681 mmHg 88%
    20:00 +16°C° 0 mm 2 mps 681 mmHg 88%
    21:00 +15°C° 0 mm 1 mps 681 mmHg 89%
    22:00 +14°C° 0 mm 1 mps 681 mmHg 88%
    23:00 +13°C° 0 mm 1 mps 681 mmHg 88%

    Tomorrow, 7 June, Sunday

    Time Temperature Precipitation Wind Pressure Humidity
    00:00 +12°C° 0 mm 1 mps 681 mmHg 87%
    01:00 +12°C° 0 mm 1 mps 681 mmHg 88%
    02:00 +11°C° 0 mm 1 mps 681 mmHg 89%
    03:00 +11°C° 0 mm 1 mps 681 mmHg 90%
    04:00 +11°C° 0 mm 1 mps 681 mmHg 91%
    05:00 +10°C° 0 mm 1 mps 682 mmHg 91%
    06:00 +10°C° 0 mm 1 mps 682 mmHg 92%
    07:00 +12°C° 0 mm 1 mps 682 mmHg 85%
    08:00 +13°C° 0 mm 1 mps 683 mmHg 78%
    09:00 +14°C° 0 mm 1 mps 684 mmHg 72%
    10:00 +16°C° 0 mm 1 mps 684 mmHg 61%
    11:00 +19°C° 0 mm 2 mps 684 mmHg 51%
    12:00 +21°C° 0 mm 2 mps 684 mmHg 41%
    13:00 +21°C° 0 mm 2 mps 684 mmHg 42%
    14:00 +21°C° 0 mm 2 mps 684 mmHg 42%
    15:00 +23°C° 0 mm 2 mps 683 mmHg 42%
    16:00 +20°C° 0 mm 2 mps 683 mmHg 51%
    17:00 +19°C° 0 mm 1 mps 683 mmHg 61%
    18:00 +15°C° 0 mm 0 mps 682 mmHg 70%
    19:00 +14°C° 0 mm 0 mps 683 mmHg 71%
    20:00 +14°C° 0 mm 0 mps 683 mmHg 73%
    21:00 +14°C° 0 mm 0 mps 683 mmHg 74%
    22:00 +13°C° 0 mm 0 mps 684 mmHg 78%
    23:00 +13°C° 0 mm 0 mps 684 mmHg 81%

    Day after tomorrow, 8 June, Monday

    Time Temperature Precipitation Wind Pressure Humidity
    00:00 +13°C° 0 mm 0 mps 684 mmHg 84%
    01:00 +13°C° 0 mm 0 mps 684 mmHg 86%
    02:00 +12°C° 0 mm 0 mps 683 mmHg 87%
    03:00 +12°C° 0 mm 0 mps 683 mmHg 89%
    04:00 +12°C° 0 mm 0 mps 683 mmHg 90%
    05:00 +12°C° 0 mm 0 mps 683 mmHg 91%
    06:00 +12°C° 0 mm 0 mps 683 mmHg 91%
    07:00 +14°C° 0 mm 0 mps 683 mmHg 85%
    08:00 +15°C° 0 mm 0 mps 684 mmHg 79%
    09:00 +19°C° 0 mm 1 mps 685 mmHg 73%
    10:00 +21°C° 0 mm 1 mps 685 mmHg 68%
    11:00 +23°C° 0 mm 1 mps 685 mmHg 63%
    12:00 +25°C° 0 mm 1 mps 685 mmHg 57%
    13:00 +25°C° 0.2 mm 1 mps 684 mmHg 61%
    14:00 +25°C° 0.2 mm 1 mps 683 mmHg 65%
    15:00 +24°C° 0.2 mm 1 mps 683 mmHg 69%
    16:00 +23°C° 0.5 mm 1 mps 683 mmHg 76%
    17:00 +21°C° 0.5 mm 1 mps 682 mmHg 83%
    18:00 +18°C° 0.5 mm 0 mps 682 mmHg 90%
    19:00 +19°C° 0.2 mm 1 mps 682 mmHg 91%
    20:00 +19°C° 0.2 mm 1 mps 683 mmHg 92%
    21:00 +19°C° 0.2 mm 1 mps 683 mmHg 93%
    22:00 +19°C° 0.2 mm 1 mps 683 mmHg 93%
    23:00 +18°C° 0.2 mm 1 mps 683 mmHg 94%

    9 June, Tuesday

    Time Temperature Precipitation Wind Pressure Humidity
    00:00 +18°C° 0.2 mm 1 mps 683 mmHg 94%
    01:00 +18°C° 0 mm 1 mps 682 mmHg 95%
    02:00 +18°C° 0 mm 1 mps 682 mmHg 95%
    03:00 +16°C° 0 mm 1 mps 682 mmHg 95%
    04:00 +16°C° 0 mm 1 mps 682 mmHg 96%
    05:00 +16°C° 0 mm 1 mps 682 mmHg 96%
    06:00 +16°C° 0 mm 1 mps 682 mmHg 96%
    07:00 +18°C° 0.1 mm 1 mps 682 mmHg 94%
    08:00 +19°C° 0.1 mm 1 mps 682 mmHg 93%
    09:00 +19°C° 0.1 mm 1 mps 683 mmHg 91%
    10:00 +21°C° 0.1 mm 1 mps 683 mmHg 84%
    11:00 +23°C° 0.1 mm 2 mps 683 mmHg 77%
    12:00 +24°C° 0.1 mm 2 mps 683 mmHg 70%
    13:00 +24°C° 0.6 mm 2 mps 682 mmHg 72%
    14:00 +24°C° 0.6 mm 2 mps 682 mmHg 74%
    15:00 +24°C° 0.6 mm 2 mps 681 mmHg 76%
    16:00 +23°C° 0.4 mm 2 mps 681 mmHg 80%
    17:00 +22°C° 0.4 mm 1 mps 681 mmHg 85%
    18:00 +20°C° 0.4 mm 1 mps 681 mmHg 89%
    19:00 +20°C° 0.1 mm 1 mps 681 mmHg 90%
    20:00 +20°C° 0.1 mm 1 mps 681 mmHg 92%
    21:00 +19°C° 0.1 mm 1 mps 681 mmHg 93%
    22:00 +19°C° 0 mm 1 mps 681 mmHg 94%
    23:00 +19°C° 0 mm 1 mps 681 mmHg 94%

    10 June, Wednesday

    Time Temperature Precipitation Wind Pressure Humidity
    00:00 +19°C° 0 mm 1 mps 680 mmHg 95%
    01:00 +18°C° 0 mm 2 mps 680 mmHg 95%
    02:00 +17°C° 0 mm 2 mps 680 mmHg 95%
    03:00 +17°C° 0 mm 2 mps 680 mmHg 95%
    04:00 +17°C° 0 mm 2 mps 680 mmHg 95%
    05:00 +17°C° 0 mm 2 mps 680 mmHg 94%
    06:00 +17°C° 0 mm 2 mps 680 mmHg 93%
    07:00 +18°C° 0 mm 2 mps 680 mmHg 90%
    08:00 +19°C° 0 mm 3 mps 680 mmHg 87%
    09:00 +20°C° 0 mm 3 mps 681 mmHg 83%
    10:00 +21°C° 0 mm 3 mps 681 mmHg 76%
    11:00 +24°C° 0 mm 3 mps 681 mmHg 69%
    12:00 +25°C° 0 mm 4 mps 681 mmHg 62%
    13:00 +26°C° 0 mm 4 mps 681 mmHg 60%
    14:00 +26°C° 0 mm 4 mps 680 mmHg 59%
    15:00 +26°C° 0 mm 3 mps 680 mmHg 57%
    16:00 +25°C° 0 mm 3 mps 680 mmHg 64%
    17:00 +23°C° 0 mm 2 mps 680 mmHg 71%
    18:00 +21°C° 0 mm 1 mps 680 mmHg 78%
    19:00 +21°C° 0 mm 1 mps 680 mmHg 80%
    20:00 +20°C° 0 mm 1 mps 680 mmHg 82%
    21:00 +20°C° 0 mm 1 mps 681 mmHg 84%
    22:00 +20°C° 0 mm 1 mps 681 mmHg 87%
    23:00 +19°C° 0 mm 1 mps 681 mmHg 90%

    11 June, Thursday

    Time Temperature Precipitation Wind Pressure Humidity
    00:00 +19°C° 0 mm 1 mps 681 mmHg 93%
    01:00 +19°C° 0 mm 1 mps 681 mmHg 94%
    02:00 +18°C° 0 mm 1 mps 680 mmHg 95%
    03:00 +18°C° 0 mm 1 mps 680 mmHg 95%
    04:00 +18°C° 0 mm 1 mps 680 mmHg 95%
    05:00 +18°C° 0 mm 1 mps 680 mmHg 95%
    06:00 +16°C° 0 mm 1 mps 680 mmHg 95%
    07:00 +18°C° 0 mm 2 mps 680 mmHg 90%
    08:00 +19°C° 0 mm 2 mps 681 mmHg 86%
    09:00 +20°C° 0 mm 2 mps 681 mmHg 81%
    10:00 +21°C° 0 mm 3 mps 681 mmHg 73%
    11:00 +24°C° 0 mm 3 mps 681 mmHg 65%
    12:00 +26°C° 0 mm 3 mps 681 mmHg 58%
    13:00 +26°C° 0 mm 3 mps 681 mmHg 56%
    14:00 +26°C° 0 mm 3 mps 680 mmHg 55%
    15:00 +27°C° 0 mm 3 mps 680 mmHg 54%
    16:00 +25°C° 0 mm 3 mps 680 mmHg 61%
    17:00 +22°C° 0 mm 3 mps 679 mmHg 69%
    18:00 +21°C° 0 mm 2 mps 679 mmHg 76%
    19:00 +20°C° 0 mm 2 mps 679 mmHg 80%
    20:00 +19°C° 0 mm 2 mps 679 mmHg 83%
    21:00 +19°C° 0 mm 2 mps 680 mmHg 86%
    22:00 +18°C° 0 mm 2 mps 680 mmHg 87%
    23:00 +18°C° 0 mm 2 mps 680 mmHg 88%
    Show more